When you browse on this site, cookies collect data to enhance your experience and personalize the content and advertising you see.
Visit our Privacy Policy to learn more. By continuing to use the site, you agree to this use of cookies and data.
  • In Denmark
  • List of Countries
  • For 7 days
  • Water Temperature
  • Satellite Maps
  • Weather Map
  • Weather Widgets
  • user-avatar
    Login

    Hourly Weather Troickoe

    Today, 21 July, Sunday

    Time Temperature Precipitation Wind Pressure Humidity
    00:00 +14°C° 0 mm 2 mps 741 mmHg 89%
    01:00 +13°C° 0 mm 3 mps 742 mmHg 88%
    02:00 +13°C° 0 mm 2 mps 742 mmHg 88%
    03:00 +13°C° 0 mm 2 mps 742 mmHg 88%
    04:00 +14°C° 0 mm 2 mps 742 mmHg 88%
    05:00 +14°C° 0 mm 2 mps 742 mmHg 87%
    06:00 +16°C° 0 mm 3 mps 742 mmHg 83%
    07:00 +17°C° 0 mm 3 mps 742 mmHg 79%
    08:00 +19°C° 0 mm 3 mps 742 mmHg 75%
    09:00 +20°C° 0 mm 3 mps 742 mmHg 71%
    10:00 +22°C° 0 mm 4 mps 742 mmHg 66%
    11:00 +23°C° 0 mm 4 mps 742 mmHg 62%
    12:00 +23°C° 0.2 mm 4 mps 742 mmHg 62%
    13:00 +23°C° 0.2 mm 4 mps 742 mmHg 63%
    14:00 +23°C° 0.2 mm 4 mps 742 mmHg 64%
    15:00 +23°C° 0.6 mm 4 mps 742 mmHg 68%
    16:00 +22°C° 0.6 mm 3 mps 742 mmHg 72%
    17:00 +22°C° 0.6 mm 3 mps 742 mmHg 76%
    18:00 +20°C° 0.1 mm 3 mps 742 mmHg 81%
    19:00 +19°C° 0.1 mm 2 mps 742 mmHg 85%
    20:00 +17°C° 0.1 mm 2 mps 742 mmHg 90%
    21:00 +17°C° 0 mm 2 mps 742 mmHg 90%
    22:00 +16°C° 0 mm 2 mps 742 mmHg 91%
    23:00 +16°C° 0 mm 2 mps 742 mmHg 92%

    Tomorrow, 22 July, Monday

    Time Temperature Precipitation Wind Pressure Humidity
    00:00 +15°C° 0 mm 2 mps 742 mmHg 92%
    01:00 +15°C° 0 mm 1 mps 742 mmHg 92%
    02:00 +15°C° 0 mm 1 mps 742 mmHg 93%
    03:00 +15°C° 0 mm 1 mps 742 mmHg 93%
    04:00 +15°C° 0 mm 1 mps 742 mmHg 93%
    05:00 +15°C° 0 mm 1 mps 742 mmHg 93%
    06:00 +18°C° 0 mm 1 mps 742 mmHg 88%
    07:00 +19°C° 0 mm 1 mps 742 mmHg 83%
    08:00 +21°C° 0 mm 1 mps 742 mmHg 78%
    09:00 +22°C° 0 mm 1 mps 742 mmHg 73%
    10:00 +23°C° 0 mm 1 mps 742 mmHg 68%
    11:00 +24°C° 0 mm 2 mps 742 mmHg 63%
    12:00 +25°C° 0 mm 2 mps 742 mmHg 61%
    13:00 +25°C° 0 mm 2 mps 741 mmHg 59%
    14:00 +26°C° 0 mm 2 mps 741 mmHg 58%
    15:00 +26°C° 0 mm 2 mps 741 mmHg 60%
    16:00 +25°C° 0 mm 2 mps 740 mmHg 63%
    17:00 +25°C° 0 mm 2 mps 740 mmHg 66%
    18:00 +24°C° 0 mm 2 mps 740 mmHg 69%
    19:00 +22°C° 0 mm 1 mps 740 mmHg 72%
    20:00 +20°C° 0 mm 1 mps 739 mmHg 75%
    21:00 +20°C° 0 mm 1 mps 739 mmHg 76%
    22:00 +18°C° 0 mm 2 mps 739 mmHg 76%
    23:00 +18°C° 0 mm 2 mps 739 mmHg 77%

    Day after tomorrow, 23 July, Tuesday

    Time Temperature Precipitation Wind Pressure Humidity
    00:00 +18°C° 0.4 mm 2 mps 739 mmHg 81%
    01:00 +18°C° 0.4 mm 1 mps 738 mmHg 86%
    02:00 +18°C° 0.4 mm 1 mps 738 mmHg 90%
    03:00 +17°C° 3.2 mm 2 mps 737 mmHg 92%
    04:00 +17°C° 3.2 mm 3 mps 737 mmHg 95%
    05:00 +17°C° 3.2 mm 4 mps 737 mmHg 98%
    06:00 +17°C° 1.7 mm 3 mps 737 mmHg 97%
    07:00 +17°C° 1.7 mm 3 mps 737 mmHg 96%
    08:00 +18°C° 1.7 mm 3 mps 736 mmHg 95%
    09:00 +19°C° 0.9 mm 3 mps 736 mmHg 92%
    10:00 +20°C° 0.9 mm 2 mps 737 mmHg 90%
    11:00 +21°C° 0.9 mm 2 mps 737 mmHg 87%
    12:00 +23°C° 1.4 mm 2 mps 736 mmHg 85%
    13:00 +23°C° 1.4 mm 2 mps 736 mmHg 83%
    14:00 +24°C° 1.4 mm 2 mps 736 mmHg 81%
    15:00 +22°C° 0.6 mm 3 mps 736 mmHg 83%
    16:00 +22°C° 0.6 mm 3 mps 736 mmHg 85%
    17:00 +22°C° 0.6 mm 3 mps 736 mmHg 86%
    18:00 +21°C° 0.2 mm 3 mps 736 mmHg 90%
    19:00 +19°C° 0.2 mm 3 mps 736 mmHg 93%
    20:00 +18°C° 0.2 mm 2 mps 736 mmHg 96%
    21:00 +18°C° 0 mm 2 mps 737 mmHg 97%
    22:00 +18°C° 0 mm 2 mps 737 mmHg 97%
    23:00 +17°C° 0 mm 2 mps 737 mmHg 98%

    24 July, Wednesday

    Time Temperature Precipitation Wind Pressure Humidity
    00:00 +17°C° 0 mm 2 mps 737 mmHg 98%
    01:00 +17°C° 0 mm 3 mps 737 mmHg 97%
    02:00 +17°C° 0 mm 3 mps 737 mmHg 97%
    03:00 +17°C° 0 mm 3 mps 737 mmHg 97%
    04:00 +17°C° 0 mm 3 mps 737 mmHg 97%
    05:00 +17°C° 0 mm 3 mps 738 mmHg 97%
    06:00 +17°C° 0 mm 3 mps 738 mmHg 96%
    07:00 +17°C° 0 mm 3 mps 738 mmHg 95%
    08:00 +17°C° 0 mm 3 mps 738 mmHg 95%
    09:00 +17°C° 0.1 mm 3 mps 738 mmHg 94%
    10:00 +18°C° 0.1 mm 3 mps 739 mmHg 93%
    11:00 +18°C° 0.1 mm 3 mps 739 mmHg 92%
    12:00 +19°C° 0 mm 3 mps 739 mmHg 89%
    13:00 +19°C° 0 mm 3 mps 739 mmHg 87%
    14:00 +20°C° 0 mm 3 mps 739 mmHg 84%
    15:00 +20°C° 0 mm 3 mps 739 mmHg 83%
    16:00 +20°C° 0 mm 3 mps 739 mmHg 82%
    17:00 +20°C° 0 mm 3 mps 739 mmHg 81%
    18:00 +19°C° 0 mm 3 mps 739 mmHg 84%
    19:00 +18°C° 0 mm 2 mps 740 mmHg 87%
    20:00 +16°C° 0 mm 2 mps 740 mmHg 91%
    21:00 +16°C° 0 mm 2 mps 740 mmHg 91%
    22:00 +15°C° 0 mm 1 mps 740 mmHg 91%
    23:00 +15°C° 0 mm 1 mps 740 mmHg 91%

    25 July, Thursday

    Time Temperature Precipitation Wind Pressure Humidity
    00:00 +15°C° 0 mm 1 mps 740 mmHg 92%
    01:00 +15°C° 0 mm 1 mps 740 mmHg 92%
    02:00 +14°C° 0 mm 2 mps 740 mmHg 93%
    03:00 +15°C° 0 mm 2 mps 740 mmHg 93%
    04:00 +15°C° 0 mm 2 mps 740 mmHg 92%
    05:00 +15°C° 0 mm 2 mps 741 mmHg 92%
    06:00 +17°C° 0 mm 3 mps 741 mmHg 87%
    07:00 +18°C° 0 mm 3 mps 741 mmHg 81%
    08:00 +20°C° 0 mm 3 mps 741 mmHg 76%
    09:00 +21°C° 0 mm 3 mps 741 mmHg 71%
    10:00 +24°C° 0 mm 3 mps 741 mmHg 67%
    11:00 +25°C° 0 mm 4 mps 741 mmHg 62%
    12:00 +25°C° 0 mm 3 mps 740 mmHg 60%
    13:00 +25°C° 0 mm 3 mps 740 mmHg 59%
    14:00 +26°C° 0 mm 3 mps 740 mmHg 57%
    15:00 +26°C° 0 mm 2 mps 740 mmHg 60%
    16:00 +25°C° 0 mm 2 mps 740 mmHg 63%
    17:00 +25°C° 0 mm 1 mps 739 mmHg 66%
    18:00 +23°C° 0.1 mm 2 mps 739 mmHg 72%
    19:00 +21°C° 0.1 mm 2 mps 739 mmHg 78%
    20:00 +19°C° 0.1 mm 2 mps 739 mmHg 84%
    21:00 +18°C° 0 mm 2 mps 739 mmHg 87%
    22:00 +18°C° 0 mm 2 mps 739 mmHg 90%
    23:00 +17°C° 0 mm 2 mps 739 mmHg 93%

    26 July, Friday

    Time Temperature Precipitation Wind Pressure Humidity
    00:00 +16°C° 0 mm 2 mps 738 mmHg 93%
    01:00 +16°C° 0 mm 3 mps 738 mmHg 94%
    02:00 +14°C° 0 mm 3 mps 738 mmHg 94%
    03:00 +14°C° 0 mm 3 mps 738 mmHg 94%
    04:00 +14°C° 0 mm 3 mps 738 mmHg 93%
    05:00 +13°C° 0 mm 3 mps 738 mmHg 93%
    06:00 +16°C° 0 mm 3 mps 738 mmHg 89%
    07:00 +17°C° 0 mm 3 mps 737 mmHg 84%
    08:00 +18°C° 0 mm 4 mps 737 mmHg 80%
    09:00 +20°C° 0 mm 3 mps 737 mmHg 73%
    10:00 +21°C° 0 mm 3 mps 737 mmHg 67%
    11:00 +22°C° 0 mm 3 mps 737 mmHg 60%
    12:00 +22°C° 0.1 mm 3 mps 736 mmHg 60%
    13:00 +22°C° 0.1 mm 3 mps 736 mmHg 61%
    14:00 +22°C° 0.1 mm 4 mps 736 mmHg 61%
    15:00 +21°C° 0.4 mm 4 mps 735 mmHg 67%
    16:00 +20°C° 0.4 mm 4 mps 735 mmHg 72%
    17:00 +19°C° 0.4 mm 5 mps 735 mmHg 77%
    18:00 +18°C° 0.1 mm 4 mps 734 mmHg 82%
    19:00 +15°C° 0.1 mm 4 mps 734 mmHg 87%
    20:00 +14°C° 0.1 mm 3 mps 734 mmHg 92%
    21:00 +13°C° 0 mm 3 mps 734 mmHg 93%
    22:00 +12°C° 0 mm 3 mps 734 mmHg 94%
    23:00 +11°C° 0 mm 3 mps 733 mmHg 95%
    Show more